Location: Great Snoring
(52.8667°N, 0.8833°E)
Time: 07:28:04
(UTC+00:00)

Cosmos 2219 Rocket - Pass Details

Date: 19 May 2025
Orbit: 828 x 844 km, 71.0° (Epoch: 18 June)

Event Time Altitude Azimuth Distance (km) Brightness Sun altitude
Rises 22:18:18 0° 328° (NNW) 3,403 7.2 -14.3°
Reaches altitude 10° 22:21:09 10° 340° (NNW) 2,463 6.1 -14.5°
Maximum altitude 22:25:55 27° 38° (NE) 1,554 3.9 -14.7°
Drops below altitude 10° 22:30:39 10° 96° (E) 2,444 4.4 -15.0°
Enters shadow 22:32:27 - 104° (ESE) 3,030 4.8 -15.1°
